Вернуться в каталог

SL-14 DEB

АктивенPO
NORAD 45319·DEBRIS·🇷🇺 Russia

Запущен Aug 15, 1991 с Plesetsk Cosmodrome

Loading…

Ближайшие Пролёты (ближайшие 24 часа)

TLE

СвежийSource: Space-Track

Эпоха: Sep 14, 2026, 07:53 UTC

1 45319U 91056BH  26257.32848258  .00000724  00000-0  12900-2 0  9992
2 45319  82.5824  24.2904 0078617 348.0121  11.9141 13.39712112319181

Отслеживайте SL-14 DEB в реальном времени с AllMySat

Download on the App Store